Home > Time Zones > World Clock > Weather > Fiji > Nadi > Past weeks

Flag Weather past 2 weeks in Nadi, Fiji

Now
81 °F

Passing clouds.


Feels Like: 85 °F
Forecast: 74 / 86 °F
Wind: 9 mph from Southeast

Location: Nandi

Current Time: Nov 28, 2014 at 10:14:09 AM

Latest Report: Nov 28, 2014 at 9:00 AM


Visibility: N/A

Pressure: 29.77 "Hg

Humidity: 79%

Dew point: 73 °F

Location of NadiLocation

Historic Weather in Nadi — Graph

°F

Nadi temperature yesterday

Maximum temperature yesterday: 91 °F (at 12:00 PM)
Minimum temperature yesterday: 72 °F (at 3:00 AM)
Average temperature yesterday: 80 °F

Past Weeks' High & Low Weather Summary

 TemperatureHumidityPressure
High93 °F (Nov 21, 2:00 PM)100% (Nov 22, 4:00 AM)30.01 "Hg (Nov 22, 4:00 AM)
Low70 °F (Nov 16, 6:00 AM)38% (Nov 24, 3:00 PM)29.68 "Hg (Nov 25, 5:00 PM)
Average80 °F72%29.87 "Hg
* Reported Nov 13 9:00 AM — Nov 28 9:00 AM, Nadi, Weather by CustomWeather, © 2014

Note: Actual official high and low records may vary slightly from our data, if they occured in-between our weather recording intervals... More about our weather records

Advertising

Nadi weather history for previous 24 hours

 ConditionsComfort  
Time TempWeatherWind HumidityBarometerVisibility
9:00 AM
Nov 28
81 °FPassing clouds.9 mph79%29.77 "HgN/A
8:00 AM79 °FPassing clouds.5 mph79%29.77 "HgN/A
7:00 AM73 °FPassing clouds.7 mph89%29.77 "HgN/A
6:00 AM72 °FPassing clouds.5 mph94%29.77 "HgN/A
5:00 AM73 °FPassing clouds.3 mph89%29.74 "HgN/A
4:00 AM72 °FPassing clouds.3 mph100%29.74 "HgN/A
3:00 AM73 °FPassing clouds.No wind94%29.74 "HgN/A
2:00 AM73 °FPassing clouds.6 mph94%29.77 "HgN/A
1:00 AM73 °FPassing clouds.2 mph94%29.77 "HgN/A
12:00 AM75 °FPassing clouds.5 mph94%29.80 "HgN/A
11:00 PM
Nov 27
75 °FPassing clouds.3 mph94%29.80 "HgN/A
10:00 PM77 °FPassing clouds.3 mph89%29.77 "HgN/A
9:00 PM77 °FPassing clouds.5 mph94%29.77 "HgN/A
8:00 PM77 °FPartly cloudy.5 mph89%29.74 "HgN/A
7:00 PM84 °FBroken clouds.12 mph62%29.71 "HgN/A
6:00 PM84 °FBroken clouds.10 mph66%29.71 "HgN/A
5:00 PM88 °FBroken clouds.13 mph55%29.68 "HgN/A
4:00 PM88 °FBroken clouds.16 mph59%29.71 "HgN/A
3:00 PM88 °FBroken clouds.16 mph59%29.71 "HgN/A
2:00 PM86 °FBroken clouds.14 mph62%29.74 "HgN/A
1:00 PM90 °FBroken clouds.10 mph49%29.77 "HgN/A
12:00 PM91 °FBroken clouds.10 mph49%29.77 "HgN/A
11:00 AM88 °FBroken clouds.9 mph55%29.80 "HgN/A
10:00 AM84 °FBroken clouds.10 mph62%29.80 "HgN/A
Weather by CustomWeather, © 2014

See weather overviewHow to use our weather pages